Home > Weather > Wedel > Past weeks

Flag for Germany Weather for the Past 2 Weeks in Wedel, Schleswig-Holstein, Germany

Now
43 °F

Rain. Passing clouds.


Feels Like: 37 °F
Forecast: 38 / 42 °F
Wind: 10 mph from East

Location: Hamburg-Finkenwerder

Current Time: Feb 9, 2016 at 7:00:14 PM

Latest Report: Feb 9, 2016 at 6:20 PM


Visibility: 4 mi

Pressure: 28.91 "Hg

Humidity: 100%

Dew point: 43 °F

Location of WedelLocation

Historic Weather in Wedel — Graph

°F

Wedel Temperature Yesterday

Maximum temperature yesterday: 50 °F (at 12:50 PM)
Minimum temperature yesterday: 43 °F (at 5:20 AM)
Average temperature yesterday: 47 °F

High & Low Weather Summary for the Past Weeks

 TemperatureHumidityPressure
High52 °F (Jan 26, 2:20 PM)100% (Jan 25, 5:20 PM)30.18 "Hg (Jan 25, 5:20 PM)
Low34 °F (Feb 4, 8:50 PM)61% (Feb 2, 7:20 PM)28.97 "Hg (Feb 9, 5:50 PM)
Average45 °F91%29.81 "Hg
* Reported Jan 25 5:20 PM — Feb 9 5:50 PM, Wedel, Weather by CustomWeather, © 2016

Note: Actual official high and low records may vary slightly from our data, if they occured in-between our weather recording intervals... More about our weather records

Advertising

Wedel Weather History for the Previous 24 Hours

 ConditionsComfort  
Time TempWeatherWind HumidityBarometerVisibility
5:50 PM
Tue, Feb 9
43 °FLight rain. Passing clouds.8 mph100%28.97 "HgN/A
4:20 PM45 °FLight rain. Partly sunny.9 mph81%29.03 "HgN/A
3:50 PM45 °FBroken clouds.9 mph81%29.06 "HgN/A
3:20 PM45 °FPartly sunny.7 mph81%29.09 "HgN/A
2:50 PM45 °FPartly sunny.8 mph81%29.09 "HgN/A
2:20 PM45 °FPassing clouds.10 mph81%29.12 "HgN/A
1:50 PM45 °FScattered clouds.9 mph81%29.15 "HgN/A
1:20 PM46 °FScattered clouds.14 mph76%29.18 "HgN/A
12:50 PM46 °FScattered clouds.15 mph76%29.18 "HgN/A
12:20 PM46 °FBroken clouds.17 mph76%29.21 "HgN/A
11:20 AM45 °FPartly sunny.17 mph81%29.24 "HgN/A
10:50 AM46 °FScattered clouds.15 mph76%29.24 "HgN/A
10:20 AM45 °FScattered clouds.17 mph81%29.24 "HgN/A
9:50 AM45 °FSunny.17 mph81%29.24 "Hg10 mi
8:50 AM43 °FScattered clouds.18 mph87%29.27 "HgN/A
8:20 AM43 °FPartly sunny.16 mph81%29.24 "HgN/A
7:50 AM45 °FClear.23 mph71%29.24 "Hg10 mi
6:50 AM45 °FPartly cloudy.25 mph87%29.24 "HgN/A
6:20 AM45 °FLight rain. Passing clouds.24 mph93%29.24 "HgN/A
5:50 AM43 °FLight rain. Partly cloudy.25 mph100%29.24 "HgN/A
5:20 AM43 °FLight rain. Passing clouds.25 mph100%29.21 "HgN/A
7:20 PM
Mon, Feb 8
46 °FClear.17 mph76%29.12 "Hg10 mi
Weather by CustomWeather, © 2016

See weather overviewHow to use our weather pages